TimeEST,TemperatureF,Dew PointF,Humidity,Sea Level PressureIn,VisibilityMPH,Wind Direction,Wind SpeedMPH,Gust SpeedMPH,PrecipitationIn,Events,Conditions,WindDirDegrees,DateUTC
12:53 AM,19.9,7.0,57,30.32,10.0,SW,9.2,-,N/A,,Clear,230,2013-01-19 05:53:00
1:53 AM,21.0,8.1,57,30.30,10.0,WSW,10.4,19.6,N/A,,Clear,240,2013-01-19 06:53:00
2:53 AM,21.9,10.0,60,30.28,10.0,SW,12.7,-,N/A,,Clear,230,2013-01-19 07:53:00
3:53 AM,23.0,12.9,65,30.26,10.0,WSW,11.5,18.4,N/A,,Mostly Cloudy,250,2013-01-19 08:53:00
4:53 AM,25.0,14.0,63,30.25,10.0,WSW,12.7,19.6,N/A,,Overcast,250,2013-01-19 09:53:00
5:53 AM,26.1,15.1,63,30.24,10.0,WSW,13.8,20.7,N/A,,Overcast,250,2013-01-19 10:53:00
6:53 AM,26.1,15.1,63,30.23,10.0,WSW,12.7,19.6,N/A,,Clear,250,2013-01-19 11:53:00
7:53 AM,26.1,16.0,66,30.22,10.0,WSW,11.5,-,N/A,,Clear,240,2013-01-19 12:53:00
8:53 AM,28.9,16.0,58,30.22,10.0,WSW,12.7,21.9,N/A,,Clear,240,2013-01-19 13:53:00
9:53 AM,32.0,17.1,54,30.20,10.0,WSW,9.2,21.9,N/A,,Clear,240,2013-01-19 14:53:00
10:53 AM,35.1,17.1,48,30.18,10.0,WSW,13.8,23.0,N/A,,Clear,240,2013-01-19 15:53:00
11:53 AM,37.0,17.1,44,30.14,10.0,WSW,17.3,26.5,N/A,,Clear,250,2013-01-19 16:53:00
12:53 PM,39.0,18.0,43,30.11,10.0,WSW,13.8,25.3,N/A,,Clear,250,2013-01-19 17:53:00
1:53 PM,39.9,19.0,43,30.08,10.0,WSW,12.7,23.0,N/A,,Clear,250,2013-01-19 18:53:00
2:53 PM,41.0,19.0,41,30.06,10.0,WSW,15.0,23.0,N/A,,Clear,240,2013-01-19 19:53:00
3:53 PM,39.9,21.0,47,30.05,10.0,WSW,11.5,20.7,N/A,,Clear,250,2013-01-19 20:53:00
4:53 PM,39.0,21.0,49,30.03,10.0,SW,8.1,-,N/A,,Partly Cloudy,230,2013-01-19 21:53:00
5:53 PM,39.0,23.0,53,30.02,10.0,WSW,10.4,-,N/A,,Clear,240,2013-01-19 22:53:00
6:53 PM,37.9,23.0,55,30.02,10.0,SSW,8.1,-,N/A,,Clear,210,2013-01-19 23:53:00
7:53 PM,37.0,23.0,57,30.01,10.0,SW,9.2,-,N/A,,Mostly Cloudy,220,2013-01-20 00:53:00
8:53 PM,37.0,23.0,57,29.98,10.0,SW,6.9,-,N/A,,Partly Cloudy,230,2013-01-20 01:53:00
9:53 PM,37.0,24.1,59,29.94,10.0,SW,9.2,-,N/A,,Clear,220,2013-01-20 02:53:00
10:53 PM,37.0,24.1,59,29.91,10.0,SW,9.2,-,N/A,,Clear,220,2013-01-20 03:53:00